Flag for Turkey Weather past 2 weeks in Istanbul, Turkey

Now
45 °F

Passing clouds.


Feels Like: 41 °F
Forecast: 39 / 58 °F
Wind: 7 mph from Northeast

Location: Istanbul Ataturk Airport

Current Time: Mar 4, 2015 at 10:37:00 PM

Latest Report: Mar 4, 2015 at 9:50 PM


Visibility: N/A

Pressure: 30.33 "Hg

Humidity: 57%

Dew point: 30 °F

Location of IstanbulLocation

Historic Weather in Istanbul — Graph

°F

Istanbul temperature yesterday

Maximum temperature yesterday: 52 °F (at 9:50 AM)
Minimum temperature yesterday: 45 °F (at 11:20 PM)
Average temperature yesterday: 49 °F

Past Weeks' High & Low Weather Summary

 TemperatureHumidityPressure
High66 °F (Feb 27, 12:50 PM)100% (Feb 18, 4:50 AM)30.45 "Hg (Feb 18, 4:50 AM)
Low28 °F (Feb 18, 12:50 AM)40% (Mar 4, 2:20 PM)29.74 "Hg (Feb 24, 12:50 PM)
Average46 °F74%30.06 "Hg
* Reported Feb 17 9:20 PM — Mar 4 9:20 PM, Istanbul, Weather by CustomWeather, © 2015

Note: Actual official high and low records may vary slightly from our data, if they occured in-between our weather recording intervals... More about our weather records

Advertising

Istanbul weather history for previous 24 hours

 ConditionsComfort  
Time TempWeatherWind HumidityBarometerVisibility
9:20 PM
Wed, Mar 4
46 °FPassing clouds.7 mph62%30.33 "HgN/A
8:50 PM46 °FPassing clouds.7 mph62%30.33 "HgN/A
8:20 PM46 °FPassing clouds.7 mph57%30.33 "HgN/A
7:50 PM46 °FPassing clouds.7 mph57%30.33 "HgN/A
7:20 PM46 °FPassing clouds.7 mph57%30.33 "HgN/A
6:50 PM46 °FPassing clouds.5 mph57%30.33 "HgN/A
6:20 PM48 °FPassing clouds.6 mph50%30.33 "HgN/A
5:50 PM48 °FPassing clouds.6 mph50%30.33 "HgN/A
5:20 PM48 °FPassing clouds.6 mph46%30.33 "HgN/A
4:50 PM48 °FPassing clouds.8 mph50%30.33 "HgN/A
4:20 PM48 °FPassing clouds.7 mph46%30.33 "HgN/A
3:50 PM50 °FScattered clouds.7 mph47%30.33 "HgN/A
3:20 PM52 °FScattered clouds.10 mph41%30.33 "HgN/A
2:50 PM48 °FScattered clouds.7 mph46%30.36 "HgN/A
2:20 PM50 °FScattered clouds.7 mph40%30.36 "HgN/A
1:50 PM50 °FScattered clouds.7 mph43%30.36 "HgN/A
1:20 PM50 °FScattered clouds.7 mph43%30.36 "HgN/A
12:50 PM50 °FPassing clouds.9 mph47%30.36 "HgN/A
12:20 PM50 °FPassing clouds.8 mph47%30.39 "HgN/A
11:50 AM48 °FPassing clouds.12 mph50%30.39 "HgN/A
11:20 AM48 °FPassing clouds.10 mph46%30.39 "HgN/A
10:50 AM48 °FPassing clouds.12 mph46%30.39 "HgN/A
10:20 AM48 °FPassing clouds.13 mph50%30.39 "HgN/A
9:50 AM46 °FSunny.17 mph53%30.39 "Hg10 mi
9:20 AM46 °FPassing clouds.12 mph53%30.39 "HgN/A
8:50 AM45 °FSunny.12 mph53%30.36 "Hg10 mi
8:20 AM45 °FSunny.12 mph53%30.36 "Hg10 mi
7:50 AM43 °FSunny.8 mph53%30.36 "Hg10 mi
7:20 AM43 °FSunny.9 mph53%30.33 "Hg10 mi
6:50 AM41 °FSunny.7 mph57%30.33 "Hg10 mi
6:20 AM41 °FClear.6 mph61%30.30 "Hg10 mi
5:50 AM41 °FClear.8 mph57%30.30 "Hg6 mi
5:20 AM43 °FClear.9 mph53%30.30 "Hg10 mi
4:50 AM43 °FClear.8 mph57%30.27 "Hg10 mi
4:20 AM43 °FClear.6 mph61%30.27 "Hg10 mi
3:50 AM45 °FPassing clouds.3 mph66%30.27 "HgN/A
3:20 AM43 °FClear.5 mph81%30.27 "Hg10 mi
2:50 AM43 °FClear.5 mph81%30.27 "Hg10 mi
2:20 AM43 °FClear.6 mph81%30.24 "Hg10 mi
1:50 AM43 °FClear.7 mph87%30.24 "Hg10 mi
1:20 AM45 °FClear.7 mph81%30.24 "Hg10 mi
12:50 AM45 °FClear.6 mph81%30.24 "Hg10 mi
12:20 AM45 °FPassing clouds.5 mph81%30.24 "HgN/A
11:50 PM
Tue, Mar 3
45 °FClear.2 mph81%30.21 "Hg10 mi
11:20 PM45 °FClear.1 mph81%30.21 "Hg10 mi
10:50 PM46 °FPassing clouds.3 mph82%30.18 "HgN/A
10:20 PM46 °FPassing clouds.3 mph82%30.18 "HgN/A
Weather by CustomWeather, © 2015

See weather overviewHow to use our weather pages